Tacoma Narrows, WA

2:55 PM PDT on April 27, 2017 (GMT -0700)
Tacoma Narrows

Weather History for KTIW - January, 2013

Change the Weather History Date:

Saturday, January 12, 2013

  Actual Average Record
Temperature  
Mean Temperature 32 °F -  
Max Temperature 36 °F 43 °F 53 °F (2016)
Min Temperature 27 °F 36 °F 19 °F (2007)
Degree Days  
Heating Degree Days 34    
Moisture  
Dew Point 24 °F    
Average Humidity 73    
Maximum Humidity 85    
Minimum Humidity 55    
Precipitation  
Precipitation 0.00 in - - ()
Sea Level Pressure  
Sea Level Pressure 30.39 in    
Wind  
Wind Speed 1 mph (North)    
Max Wind Speed 6 mph    
Max Gust Speed -    
Visibility 10 miles    
Events      
Averages and records for this station are not official NWS values.
T = Trace of Precipitation, MM = Missing Value Source: NWS Daily Summary

Daily Weather History Graph

Daily Weather History Graph

Search for Another Location

Airport or City:

Trip Planner

Search our weather history database for the weather conditions in past years. The results will help you decide how hot, cold, wet, or windy it might be!

Date:

Astronomy

Jan. 12, 2013 Rise Set
Actual Time 7:54 AM PST 4:43 PM PST
Civil Twilight 7:19 AM PST 5:18 PM PST
Nautical Twilight 6:41 AM PST 5:56 PM PST
Astronomical Twilight 6:04 AM PST 6:33 PM PST
Moon 8:09 AM PST (1/12) 6:28 PM PST (1/12)
Length of Visible Light 9h 59m
Length of Day
8h 49m
New Moon, 2% of the Moon is Illuminated
Jan 12
New Moon
Jan 18
First Quarter
Jan 26
Full
Feb 3
Last Quarter
Feb 9
New

Hourly Weather History & Observations

Time (PST) Temp. Windchill Dew Point Humidity Pressure Visibility Wind Dir Wind Speed Gust Speed Precip Events Conditions
12:53 AM 28.9 °F - 24.1 °F 82% 30.33 in 10.0 mi Calm Calm - N/A   Clear
1:53 AM 30.0 °F - 25.0 °F 82% 30.33 in 10.0 mi Calm Calm - N/A   Clear
2:53 AM 28.0 °F - 24.1 °F 85% 30.34 in 10.0 mi Calm Calm - N/A   Clear
3:53 AM 30.0 °F 26.5 °F 24.1 °F 79% 30.34 in 10.0 mi ESE 3.5 mph - N/A   Clear
4:53 AM 27.0 °F - 21.9 °F 81% 30.34 in 10.0 mi Calm Calm - N/A   Clear
5:53 AM 27.0 °F - 21.9 °F 81% 30.35 in 10.0 mi Calm Calm - N/A   Clear
6:53 AM 27.0 °F - 23.0 °F 85% 30.35 in 10.0 mi Calm Calm - N/A   Clear
7:53 AM 28.9 °F - 23.0 °F 78% 30.37 in 10.0 mi Calm Calm - N/A   Clear
8:53 AM 30.0 °F - 25.0 °F 82% 30.38 in 10.0 mi Calm Calm - N/A   Clear
9:53 AM 32.0 °F - 26.1 °F 79% 30.39 in 10.0 mi Calm Calm - N/A   Clear
10:53 AM 33.1 °F 30.0 °F 27.0 °F 78% 30.40 in 10.0 mi North 3.5 mph - N/A   Scattered Clouds
11:53 AM 33.1 °F 30.0 °F 25.0 °F 72% 30.39 in 10.0 mi North 3.5 mph - N/A   Mostly Cloudy
12:53 PM 35.1 °F 30.1 °F 26.1 °F 70% 30.38 in 10.0 mi NNW 5.8 mph - N/A   Mostly Cloudy
1:16 PM 35.6 °F - 26.6 °F 70% 30.37 in 10.0 mi Calm Calm - N/A   Scattered Clouds
1:53 PM 35.1 °F 30.1 °F 26.1 °F 70% 30.40 in 10.0 mi NE 5.8 mph - N/A   Mostly Cloudy
2:05 PM 35.6 °F - 24.8 °F 65% 30.38 in 10.0 mi Calm Calm - N/A   Scattered Clouds
2:53 PM 36.0 °F 32.1 °F 23.0 °F 59% 30.40 in 10.0 mi NE 4.6 mph - N/A   Scattered Clouds
3:53 PM 36.0 °F 31.1 °F 21.0 °F 55% 30.41 in 10.0 mi North 5.8 mph - N/A   Partly Cloudy
4:53 PM 34.0 °F 28.8 °F 23.0 °F 64% 30.41 in 10.0 mi North 5.8 mph - N/A   Mostly Cloudy
5:16 PM 33.8 °F 29.6 °F 24.8 °F 70% 30.39 in 10.0 mi NNW 4.6 mph - N/A   Mostly Cloudy
5:53 PM 34.0 °F 29.8 °F 21.9 °F 61% 30.41 in 10.0 mi North 4.6 mph - N/A   Mostly Cloudy
6:53 PM 34.0 °F 31.0 °F 24.1 °F 67% 30.42 in 10.0 mi NNW 3.5 mph - N/A   Mostly Cloudy
7:53 PM 33.1 °F - 23.0 °F 66% 30.41 in 10.0 mi Calm Calm - N/A   Overcast
8:18 PM 33.8 °F - 23.0 °F 65% 30.40 in 10.0 mi Calm Calm - N/A   Overcast
8:53 PM 32.0 °F - 24.1 °F 73% 30.43 in 10.0 mi Calm Calm - N/A   Mostly Cloudy
9:53 PM 30.9 °F - 23.0 °F 72% 30.43 in 10.0 mi Calm Calm - N/A   Clear
10:53 PM 28.9 °F - 21.9 °F 75% 30.43 in 10.0 mi Calm Calm - N/A   Clear
11:53 PM 30.0 °F - 23.0 °F 75% 30.45 in 10.0 mi Calm Calm - N/A   Scattered Clouds